Location: Boursonne
(49.2024°N, 3.0468°E)
Time: 00:30:19
(UTC+00:00)

Cosmos 1980 Rocket - Pass Details

Date: 03 March 2021
Orbit: 828 x 851 km, 71.0° (Epoch: 14 April)

Event Time Altitude Azimuth Distance (km) Brightness Sun altitude
Rises 18:53:37 0° 246° (WSW) 3,395 6.5 -13.7°
Reaches altitude 10° 18:56:27 10° 259° (W) 2,468 5.9 -14.2°
Maximum altitude 19:01:11 27° 316° (NW) 1,592 4.2 -15.0°
Drops below altitude 10° 19:05:59 10° 13° (NNE) 2,487 4.6 -15.7°
Sets 19:08:51 0° 26° (NNE) 3,428 5.2 -16.2°
